TimeCST,TemperatureF,Dew PointF,Humidity,Sea Level PressureIn,VisibilityMPH,Wind Direction,Wind SpeedMPH,Gust SpeedMPH,PrecipitationIn,Events,Conditions,WindDirDegrees,DateUTC
12:15 AM,68.4,59.9,74,29.84,7.0,South,12.7,20.7,N/A,,Clear,170,2013-03-05 06:15:00
12:35 AM,68.0,59.9,75,29.84,7.0,South,15.0,19.6,N/A,,Clear,170,2013-03-05 06:35:00
12:55 AM,67.6,60.1,77,29.83,7.0,South,15.0,-,N/A,,Clear,170,2013-03-05 06:55:00
1:15 AM,68.0,60.3,76,29.83,7.0,South,12.7,-,N/A,,Clear,170,2013-03-05 07:15:00
1:55 AM,67.5,60.3,78,29.83,7.0,South,10.4,-,N/A,,Clear,170,2013-03-05 07:55:00
2:15 AM,67.5,60.1,77,29.83,7.0,South,13.8,19.6,N/A,,Clear,180,2013-03-05 08:15:00
2:35 AM,67.1,59.9,78,29.83,7.0,South,11.5,-,N/A,,Clear,170,2013-03-05 08:35:00
2:55 AM,67.1,59.9,78,29.82,7.0,South,13.8,-,N/A,,Clear,180,2013-03-05 08:55:00
3:15 AM,67.1,59.5,77,29.82,7.0,South,12.7,-,N/A,,Clear,180,2013-03-05 09:15:00
3:35 AM,67.1,59.4,76,29.82,7.0,South,13.8,18.4,N/A,,Clear,170,2013-03-05 09:35:00
3:55 AM,66.7,59.4,77,29.83,7.0,South,15.0,18.4,N/A,,Clear,170,2013-03-05 09:55:00
4:15 AM,66.7,59.5,78,29.83,7.0,South,11.5,-,N/A,,Clear,170,2013-03-05 10:15:00
4:55 AM,66.4,59.9,80,29.83,7.0,South,13.8,-,N/A,,Clear,170,2013-03-05 10:55:00
5:15 AM,66.2,60.3,81,29.83,7.0,South,11.5,-,N/A,,Scattered Clouds,170,2013-03-05 11:15:00
5:35 AM,66.2,60.4,82,29.84,7.0,South,10.4,-,N/A,,Clear,170,2013-03-05 11:35:00
5:55 AM,65.8,60.6,83,29.85,7.0,South,11.5,-,N/A,,Clear,170,2013-03-05 11:55:00
6:15 AM,65.7,60.8,84,29.86,7.0,South,11.5,-,N/A,,Clear,180,2013-03-05 12:15:00
6:55 AM,65.3,60.8,85,29.88,5.0,South,9.2,-,N/A,,Clear,180,2013-03-05 12:55:00
7:15 AM,64.9,60.4,85,29.89,5.0,South,6.9,-,N/A,,Clear,190,2013-03-05 13:15:00
7:35 AM,65.3,60.8,85,29.90,5.0,South,5.8,-,N/A,,Clear,190,2013-03-05 13:35:00
7:55 AM,66.6,61.2,83,29.93,5.0,SSW,8.1,-,N/A,,Haze,210,2013-03-05 13:55:00
8:15 AM,67.5,61.0,80,29.97,5.0,Calm,Calm,-,N/A,,Haze,0,2013-03-05 14:15:00
8:35 AM,68.5,61.0,77,30.01,5.0,North,10.4,-,N/A,,Haze,350,2013-03-05 14:35:00
8:55 AM,67.5,59.7,76,30.03,5.0,North,13.8,-,N/A,,Haze,350,2013-03-05 14:55:00
9:15 AM,69.8,59.2,69,30.03,5.0,North,9.2,16.1,N/A,,Haze,360,2013-03-05 15:15:00
9:35 AM,70.5,59.0,67,30.04,5.0,North,9.2,-,N/A,,Haze,10,2013-03-05 15:35:00
9:55 AM,70.9,58.5,65,30.06,5.0,NNE,15.0,-,N/A,,Haze,20,2013-03-05 15:55:00
10:15 AM,71.1,58.5,64,30.09,5.0,North,15.0,-,N/A,,Haze,10,2013-03-05 16:15:00
10:35 AM,72.0,58.3,62,30.10,7.0,North,17.3,26.5,N/A,,Overcast,10,2013-03-05 16:35:00
10:55 AM,66.4,47.7,51,30.14,2.5,North,31.1,36.8,N/A,,Haze,350,2013-03-05 16:55:00
11:15 AM,63.9,44.1,49,30.17,3.0,North,24.2,39.1,N/A,,Haze,360,2013-03-05 17:15:00
11:35 AM,64.8,44.1,47,30.19,4.0,North,21.9,29.9,N/A,,Haze,10,2013-03-05 17:35:00
11:55 AM,64.2,42.3,45,30.21,4.0,North,25.3,32.2,N/A,,Haze,350,2013-03-05 17:55:00
12:15 PM,63.9,40.6,43,30.21,5.0,North,21.9,31.1,N/A,,Haze,360,2013-03-05 18:15:00
12:35 PM,64.8,40.3,41,30.21,5.0,North,23.0,29.9,N/A,,Haze,360,2013-03-05 18:35:00
12:55 PM,64.8,38.8,38,30.22,5.0,North,23.0,27.6,N/A,,Haze,350,2013-03-05 18:55:00
1:15 PM,65.7,37.6,36,30.21,4.0,North,21.9,26.5,N/A,,Haze,10,2013-03-05 19:15:00
1:35 PM,67.3,36.7,32,30.21,5.0,North,21.9,26.5,N/A,,Haze,360,2013-03-05 19:35:00
1:55 PM,68.4,36.5,31,30.21,5.0,North,21.9,31.1,N/A,,Haze,10,2013-03-05 19:55:00
2:15 PM,70.9,36.0,28,30.20,5.0,North,23.0,28.8,N/A,,Haze,360,2013-03-05 20:15:00
2:35 PM,72.1,35.8,26,30.20,5.0,North,21.9,27.6,N/A,,Haze,350,2013-03-05 20:35:00
2:55 PM,70.9,35.1,27,30.20,5.0,North,15.0,28.8,N/A,,Haze,360,2013-03-05 20:55:00
3:15 PM,72.9,34.7,25,30.20,7.0,North,19.6,27.6,N/A,,Overcast,10,2013-03-05 21:15:00
3:35 PM,74.3,34.0,23,30.20,5.0,North,20.7,24.2,N/A,,Haze,10,2013-03-05 21:35:00
3:55 PM,75.4,33.6,22,30.19,7.0,North,18.4,-,N/A,,Scattered Clouds,10,2013-03-05 21:55:00
4:15 PM,76.6,31.8,19,30.19,7.0,North,18.4,26.5,N/A,,Clear,10,2013-03-05 22:15:00
4:35 PM,76.8,31.1,19,30.19,7.0,North,20.7,26.5,N/A,,Clear,350,2013-03-05 22:35:00
4:55 PM,76.1,29.7,18,30.20,7.0,North,17.3,25.3,N/A,,Clear,10,2013-03-05 22:55:00
5:15 PM,74.7,28.6,18,30.20,5.0,NNE,20.7,25.3,N/A,,Haze,20,2013-03-05 23:15:00
5:35 PM,74.1,27.1,18,30.21,7.0,North,20.7,24.2,N/A,,Clear,10,2013-03-05 23:35:00
5:55 PM,72.5,26.6,18,30.22,5.0,North,16.1,21.9,N/A,,Haze,10,2013-03-05 23:55:00
6:15 PM,71.6,25.2,18,30.23,7.0,North,15.0,20.7,N/A,,Clear,10,2013-03-06 00:15:00
6:35 PM,70.0,20.7,15,30.24,7.0,North,16.1,21.9,N/A,,Clear,10,2013-03-06 00:35:00
6:55 PM,68.9,21.0,16,30.25,7.0,NNE,10.4,-,N/A,,Clear,20,2013-03-06 00:55:00
7:15 PM,67.6,23.0,18,30.25,7.0,North,9.2,-,N/A,,Clear,10,2013-03-06 01:15:00
7:35 PM,66.2,23.2,20,30.26,7.0,North,8.1,-,N/A,,Clear,10,2013-03-06 01:35:00
7:55 PM,64.2,24.1,22,30.27,5.0,North,5.8,-,N/A,,Haze,360,2013-03-06 01:55:00
8:15 PM,62.2,24.6,24,30.28,5.0,North,5.8,-,N/A,,Haze,360,2013-03-06 02:15:00
8:35 PM,61.0,24.8,25,30.28,7.0,North,5.8,-,N/A,,Clear,350,2013-03-06 02:35:00
8:55 PM,60.3,25.5,27,30.28,7.0,North,5.8,-,N/A,,Clear,350,2013-03-06 02:55:00
9:15 PM,59.5,26.1,28,30.29,7.0,NNW,5.8,-,N/A,,Clear,330,2013-03-06 03:15:00
9:35 PM,59.0,26.2,29,30.30,7.0,NW,4.6,-,N/A,,Clear,320,2013-03-06 03:35:00
9:55 PM,59.0,26.2,29,30.30,7.0,NW,3.5,-,N/A,,Clear,310,2013-03-06 03:55:00
10:15 PM,58.1,26.4,30,30.31,7.0,WNW,3.5,-,N/A,,Clear,300,2013-03-06 04:15:00
10:35 PM,56.5,26.6,32,30.32,7.0,WNW,3.5,-,N/A,,Clear,300,2013-03-06 04:35:00
10:55 PM,54.5,26.8,34,30.32,10.0,Calm,Calm,-,N/A,,Clear,0,2013-03-06 04:55:00
11:15 PM,55.0,26.4,33,30.32,7.0,Calm,Calm,-,N/A,,Clear,0,2013-03-06 05:15:00
11:35 PM,53.8,26.4,35,30.32,7.0,Calm,Calm,-,N/A,,Clear,0,2013-03-06 05:35:00
11:55 PM,53.4,26.2,35,30.32,7.0,North,6.9,-,N/A,,Clear,350,2013-03-06 05:55:00